Location: State Camp
(41.2367°N, 77.7828°W)
Time: 08:16:37
(UTC-04:00)

Amateur Radio Satellites - All Passes

Search period start: 29 May 2015 07:46
Search period end: 30 May 2015 07:46
Location: State Camp, 41.2367°N, 77.7828°W

Satellite Date Start Highest point End Downlink Frequencies (MHz)
Time Altitude Azimuth
AIST 1 29 May 07:48:23 07:52:42 55° 79° (E) 07:57:02
AO-7 29 May 07:54:26 07:59:26 17° 311° (NW) 08:04:05 29.400- 29.500
Cubesat XI-IV 29 May 08:02:48 08:08:05 60° 288° (WNW) 08:13:22 437.490
PCSat 29 May 08:04:22 08:05:57 11° 34° (NE) 08:07:45 145.827
Cosmos 2491 29 May 08:47:55 08:54:36 24° 278° (W) 09:00:55 435.465 / 435.565
GOMX 1 29 May 08:49:30 08:53:58 28° 92° (E) 08:58:18 467.674
BRITE-PL 29 May 08:58:52 09:04:24 54° 98° (E) 09:09:37 437.365/2234.400
CANX-2 29 May 09:10:28 09:13:57 25° 94° (E) 09:17:29 2200.000
CUTE 1.7 + AOD 2 29 May 09:13:39 09:17:06 25° 94° (E) 09:20:37 437.475
Cosmos 2504 29 May 09:16:25 09:22:54 28° 86° (E) 09:29:17 435.465 / 435.565
CUTE-I 29 May 09:23:35 09:26:10 13° 300° (WNW) 09:28:29 437.470
AIST 1 29 May 09:27:58 09:29:55 12° 274° (W) 09:31:38
RS-15 29 May 09:32:00 09:42:54 87° 121° (ESE) 09:54:09 29.354- 29.394
SEEDS 29 May 09:32:06 09:35:51 32° 96° (E) 09:39:39 437.485
Oscar 11 29 May 09:33:37 09:33:43 10° 87° (E) 09:34:08 145.826/435.025
DOVE 4 29 May 09:37:55 09:42:53 52° 98° (E) 09:47:32 437.250
YUBILEINY 29 May 09:38:28 09:45:48 28° 294° (WNW) 09:52:52 435.215
ANTELSAT 29 May 09:38:54 09:41:11 14° 64° (ENE) 09:43:39 437.575/2403.000
COMPASS 1 29 May 09:41:18 09:45:03 33° 96° (E) 09:48:49 437.405
HO-68 29 May 09:41:31 09:48:32 56° 101° (E) 09:55:32 435.675
PCSat 29 May 09:45:22 09:50:42 56° 56° (ENE) 09:56:02 145.827
AAUSAT CUBESAT 2 29 May 09:51:12 09:55:03 36° 97° (E) 09:58:53 437.432
DELFI C3 29 May 10:02:43 10:05:04 15° 91° (E) 10:07:34 145.870
QB50P1 29 May 10:04:51 10:05:21 10° 63° (ENE) 10:06:06 145.935-145.965
POLYITAN 1 29 May 10:07:26 10:08:45 11° 63° (ENE) 10:10:17 437.675
TIGRISAT 29 May 10:08:45 10:12:36 26° 69° (ENE) 10:16:30 435.000
UWE-3 29 May 10:15:24 10:18:48 23° 93° (E) 10:22:12 435.000/436.395/437.385
FUNcube-1 29 May 10:18:54 10:21:52 19° 91° (E) 10:24:55 145.935
GOMX 1 29 May 10:27:16 10:32:10 37° 291° (WNW) 10:36:46 467.674
UNISAT 6 29 May 10:29:40 10:34:05 44° 72° (ENE) 10:38:30 437.425
NANOSAT C BR1 29 May 10:32:24 10:35:30 20° 67° (ENE) 10:38:44 145.865
CINEMA 3 29 May 10:34:42 10:39:26 85° 285° (WNW) 10:43:54 145.822/145.860
HUMSAT D 29 May 10:34:52 10:36:28 12° 89° (E) 10:38:17 437.325/437.525
BRITE-PL 29 May 10:38:12 10:42:28 22° 296° (WNW) 10:46:28 437.365/2234.400
QB50P2 29 May 10:41:50 10:45:24 26° 69° (ENE) 10:49:03 145.880/145.840
SO-50 29 May 10:42:13 10:46:01 22° 42° (NE) 10:49:54 436.795
CANX-2 29 May 10:46:17 10:49:51 26° 290° (WNW) 10:53:20 2200.000
CUTE 1.7 + AOD 2 29 May 10:49:25 10:53:00 27° 290° (WNW) 10:56:31 437.475
DUCHIFAT 1 29 May 10:52:58 10:56:46 32° 70° (ENE) 11:00:38 145.980
POPSAT HIP 1 29 May 10:53:07 10:56:58 33° 71° (ENE) 11:00:53 437.405
50 SAT 29 May 10:56:17 10:57:04 11° 88° (E) 10:58:06 437.505
UKube-1 29 May 10:56:43 11:00:01 21° 93° (E) 11:03:25 .
ZACube-1 29 May 10:59:39 11:03:53 55° 99° (E) 11:08:00 437.345
BUGSAT 1 29 May 11:04:36 11:08:12 30° 70° (ENE) 11:11:56 437.445
Oscar 11 29 May 11:06:11 11:10:29 69° 285° (WNW) 11:14:44 145.826/435.025
Cosmos 2504 29 May 11:07:44 11:15:54 59° 282° (WNW) 11:23:30 435.465 / 435.565
SEEDS 29 May 11:08:19 11:11:30 21° 292° (WNW) 11:14:34 437.485
DX 1 29 May 11:08:51 11:12:46 31° 96° (E) 11:16:42 434.975-435.025
CUBEBUG 2 29 May 11:09:14 11:13:40 71° 284° (WNW) 11:17:56 437.445
ANTELSAT 29 May 11:12:50 11:17:30 66° 259° (W) 11:22:07 437.575/2403.000
DOVE 4 29 May 11:16:37 11:20:12 19° 296° (WNW) 11:23:31 437.250
COMPASS 1 29 May 11:17:26 11:20:33 20° 292° (WNW) 11:23:34 437.405
CUBEBUG 1 29 May 11:25:24 11:27:09 12° 88° (E) 11:29:09 437.445
AAUSAT CUBESAT 2 29 May 11:27:29 11:30:26 18° 292° (WNW) 11:33:14 437.432
PCSat 29 May 11:29:45 11:33:45 21° 253° (WSW) 11:37:34 145.827
HO-68 29 May 11:29:53 11:35:56 30° 299° (WNW) 11:41:48 435.675
VELOX 1 29 May 11:33:00 11:36:54 29° 96° (E) 11:40:50 145.980
DANDE 29 May 11:35:36 11:37:48 12° 76° (ENE) 11:40:42 436.750
QB50P1 29 May 11:36:22 11:40:39 79° 258° (WSW) 11:44:59 145.935-145.965
DELFI C3 29 May 11:36:37 11:40:24 39° 288° (WNW) 11:44:08 145.870
POLYITAN 1 29 May 11:39:50 11:44:07 71° 258° (WSW) 11:48:27 437.675
TIGRISAT 29 May 11:45:02 11:49:15 32° 264° (W) 11:53:22 435.000
CUSAT 1 29 May 11:46:04 11:51:08 20° 82° (E) 11:56:51 437.405
ESTCUBE 1 29 May 11:46:08 11:49:49 25° 94° (E) 11:53:35 437.505/2401.250
RS-15 29 May 11:47:13 11:56:55 33° 328° (NNW) 12:06:45 29.354- 29.394
UWE-3 29 May 11:51:32 11:55:24 31° 290° (WNW) 11:59:07 435.000/436.395/437.385
FUNcube-1 29 May 11:54:25 11:58:23 36° 289° (WNW) 12:02:13 145.935
AISAT 29 May 12:05:11 12:09:41 69° 101° (E) 12:14:09 437.250
NANOSAT C BR1 29 May 12:07:11 12:11:08 35° 263° (W) 12:15:05 145.865
UNISAT 6 29 May 12:07:44 12:11:06 19° 268° (W) 12:14:18 437.425
HUMSAT D 29 May 12:08:35 12:12:39 52° 286° (WNW) 12:16:38 437.325/437.525
GONETS M04 29 May 12:11:16 12:17:38 24° 82° (E) 12:24:21
QB50P2 29 May 12:17:33 12:21:15 27° 265° (W) 12:24:53 145.880/145.840
SO-50 29 May 12:22:06 12:27:00 60° 241° (WSW) 12:31:48 436.795
50 SAT 29 May 12:28:25 12:32:12 52° 286° (WNW) 12:35:56 437.505
DUCHIFAT 1 29 May 12:29:19 12:32:40 21° 267° (W) 12:35:56 145.980
POPSAT HIP 1 29 May 12:29:37 12:32:56 21° 267° (W) 12:36:11 437.405
UKube-1 29 May 12:32:18 12:36:16 34° 290° (WNW) 12:40:09 .
ZACube-1 29 May 12:37:33 12:39:49 14° 296° (WNW) 12:41:52 437.345
BUGSAT 1 29 May 12:40:22 12:43:43 23° 267° (W) 12:47:01 437.445
DX 1 29 May 12:45:18 12:48:53 24° 292° (WNW) 12:52:22 434.975-435.025
Oscar 19 29 May 12:52:00 12:56:12 26° 66° (ENE) 13:00:31 437.125/150
CUBEBUG 1 29 May 12:59:35 13:04:00 61° 286° (WNW) 13:08:22 437.445
VELOX 1 29 May 13:09:36 13:13:23 27° 292° (WNW) 13:17:05 145.980
DANDE 29 May 13:12:11 13:19:24 63° 94° (E) 13:27:50 436.750
ITAMSAT 1 29 May 13:14:19 13:16:27 13° 60° (ENE) 13:18:50 435.822/435.867
ESTCUBE 1 29 May 13:22:42 13:26:44 32° 290° (WNW) 13:30:43 437.505/2401.250
CUSAT 1 29 May 13:25:14 13:32:50 87° 279° (W) 13:41:15 437.405
SPROUT 29 May 13:28:06 13:32:27 78° 102° (ESE) 13:36:46 437.525
TISAT 1 29 May 13:40:57 13:45:15 78° 102° (ESE) 13:49:29 437.305
Cosmos 2499 29 May 13:41:27 13:44:38 14° 81° (E) 13:48:17 435.465 / 435.565
AISAT 29 May 13:43:42 13:45:46 13° 297° (WNW) 13:47:38 437.250
Gurwin Techsat 1B 29 May 14:04:47 14:09:31 35° 69° (ENE) 14:14:19 435.225
GONETS M04 29 May 14:04:52 14:13:43 73° 280° (W) 14:22:35
RS-15 29 May 14:06:10 14:14:08 21° 2° (N) 14:22:22 29.354- 29.394
ITUPSAT 1 29 May 14:13:09 14:17:08 26° 94° (E) 14:21:11 437.325
BEESAT 29 May 14:18:56 14:23:08 30° 96° (E) 14:27:21 436.000
SWISSCUBE 29 May 14:27:40 14:32:11 40° 98° (E) 14:36:42 437.505
Oscar 19 29 May 14:30:31 14:35:24 39° 263° (W) 14:40:15 437.125/150
ITAMSAT 1 29 May 14:50:08 14:55:18 86° 256° (WSW) 15:00:32 435.822/435.867
DANDE 29 May 14:56:39 15:03:21 31° 296° (WNW) 15:10:34 436.750
AO-7 29 May 15:06:52 15:14:07 37° 60° (ENE) 15:21:34 29.400- 29.500
SPROUT 29 May 15:07:01 15:07:58 10° 297° (WNW) 15:08:42 437.525
HORYU 2 29 May 15:07:38 15:11:01 22° 67° (ENE) 15:14:29 437.375
CUSAT 1 29 May 15:11:06 15:16:53 21° 301° (WNW) 15:22:34 437.405
O/OREOS (USA 219) 29 May 15:14:33 15:18:44 39° 106° (ESE) 15:22:56 437.305
KKS-1 29 May 15:15:55 15:19:15 21° 93° (E) 15:22:39 437.445
TISAT 1 29 May 15:19:40 15:20:27 10° 298° (WNW) 15:20:59 437.305
JAS-2 29 May 15:20:47 15:26:37 37° 70° (ENE) 15:31:55 435.910
Cosmos 2499 29 May 15:28:49 15:36:54 82° 96° (E) 15:44:25 435.465 / 435.565
Gurwin Techsat 1B 29 May 15:44:53 15:49:33 30° 265° (W) 15:54:09 435.225
ITUPSAT 1 29 May 15:50:46 15:55:05 33° 291° (WNW) 15:59:20 437.325
BEESAT 29 May 15:56:48 16:00:55 29° 292° (WNW) 16:04:58 436.000
SWISSCUBE 29 May 16:06:06 16:09:49 22° 294° (WNW) 16:13:25 437.505
GONETS M04 29 May 16:07:40 16:12:34 15° 304° (NW) 16:16:54
STARS 29 May 16:12:32 16:16:52 52° 100° (E) 16:21:10 437.465
RS-15 29 May 16:20:51 16:31:10 37° 35° (NE) 16:42:04 29.354- 29.394
HORYU 2 29 May 16:43:19 16:47:28 36° 263° (W) 16:51:36 437.375
KKS-1 29 May 16:51:53 16:56:01 37° 290° (WNW) 17:00:06 437.445
BEESAT 2 29 May 16:54:10 16:56:18 14° 111° (ESE) 16:58:38 435.950
O/OREOS (USA 219) 29 May 16:54:49 16:58:20 21° 304° (NW) 17:01:45 437.305
AO-7 29 May 16:58:38 17:06:42 53° 259° (W) 17:14:47 29.400- 29.500
MOZHAYETS 4 29 May 17:04:46 17:08:32 26° 94° (E) 17:12:24
JAS-2 29 May 17:05:48 17:11:45 34° 263° (W) 17:17:03 435.910
CUTE-I 29 May 17:25:23 17:28:59 19° 63° (ENE) 17:32:47 437.470
Cosmos 2499 29 May 17:25:30 17:30:59 19° 296° (WNW) 17:35:55 435.465 / 435.565
BEESAT 3 29 May 17:37:15 17:41:12 52° 118° (ESE) 17:45:13 437.485
Cubesat XI-IV 29 May 17:45:51 17:50:20 29° 67° (ENE) 17:54:55 437.490
YUBILEINY 29 May 17:50:10 17:57:37 32° 68° (ENE) 18:05:16 435.215
STARS 29 May 17:50:14 17:52:56 16° 295° (WNW) 17:55:29 437.465
Cosmos 2491 29 May 17:58:48 18:03:16 16° 78° (ENE) 18:08:18 435.465 / 435.565
BEESAT 2 29 May 18:29:58 18:34:00 53° 306° (NW) 18:38:04 435.950
RS-15 29 May 18:33:17 18:44:58 80° 240° (WSW) 18:57:05 29.354- 29.394
AIST 2 29 May 18:38:24 18:42:32 53° 118° (ESE) 18:46:44 435.215
MOZHAYETS 4 29 May 18:41:45 18:45:48 31° 290° (WNW) 18:49:47
CUBESAT XI-V 29 May 18:51:25 18:55:27 28° 94° (E) 18:59:33 437.345
PRISM 29 May 19:00:40 19:02:31 13° 90° (E) 19:04:34 437.425
CUTE-I 29 May 19:03:27 19:08:40 58° 259° (W) 19:13:57 437.470
BEESAT 3 29 May 19:16:35 19:19:30 18° 317° (NW) 19:22:21 437.485
Cubesat XI-IV 29 May 19:25:27 19:30:21 36° 263° (W) 19:35:13 437.490
STRAND 1 29 May 19:42:42 19:47:27 37° 97° (E) 19:52:14 437.568
YUBILEINY 29 May 19:46:31 19:54:58 57° 269° (W) 20:03:21 435.215
Cosmos 2491 29 May 19:50:07 19:58:55 83° 96° (E) 20:07:49 435.465 / 435.565
GOMX 1 29 May 19:56:56 20:01:27 31° 68° (ENE) 20:06:13 467.674
CINEMA 3 29 May 20:02:32 20:03:55 11° 61° (ENE) 20:05:36 145.822/145.860
CANX-2 29 May 20:03:57 20:06:58 20° 68° (ENE) 20:10:05 2200.000
CUTE 1.7 + AOD 2 29 May 20:07:05 20:10:03 19° 68° (ENE) 20:13:08 437.475
BRITE-PL 29 May 20:08:55 20:14:00 59° 73° (ENE) 20:19:29 437.365/2234.400
HO-68 29 May 20:10:01 20:16:37 42° 65° (ENE) 20:23:19 435.675
AIST 1 29 May 20:18:06 20:21:52 32° 91° (E) 20:25:42
AIST 2 29 May 20:18:19 20:21:27 19° 317° (NW) 20:24:31 435.215
SEEDS 29 May 20:24:30 20:27:51 24° 69° (ENE) 20:31:16 437.485
CUBESAT XI-V 29 May 20:28:45 20:32:52 30° 290° (WNW) 20:36:55 437.345
COMPASS 1 29 May 20:32:54 20:36:12 24° 69° (ENE) 20:39:34 437.405
CUBEBUG 2 29 May 20:34:05 20:35:18 11° 62° (ENE) 20:36:48 437.445
PRISM 29 May 20:34:16 20:38:20 51° 286° (WNW) 20:42:23 437.425
AAUSAT CUBESAT 2 29 May 20:42:17 20:45:42 25° 70° (ENE) 20:49:10 437.432
DOVE 4 29 May 20:42:31 20:47:32 53° 73° (ENE) 20:52:44 437.250
M-CUBED/EXP-1 PRIME 29 May 20:44:00 20:47:16 57° 106° (ESE) 20:50:34 437.505
RS-15 29 May 20:48:09 20:56:00 19° 259° (WSW) 21:03:10 29.354- 29.394
AUBIESAT-1 29 May 20:49:15 20:52:30 56° 106° (ESE) 20:55:49 437.475
DELFI C3 29 May 20:52:11 20:52:50 10° 64° (ENE) 20:53:42 145.870
Cosmos 2504 29 May 21:00:02 21:06:56 48° 75° (ENE) 21:13:53 435.465 / 435.565
UWE-3 29 May 21:12:29 21:15:58 22° 68° (ENE) 21:19:33 435.000/436.395/437.385
FUNcube-1 29 May 21:14:52 21:17:49 18° 66° (ENE) 21:20:53 145.935
STRAND 1 29 May 21:22:12 21:26:31 27° 293° (WNW) 21:30:46 437.568
HUMSAT D 29 May 21:28:16 21:28:52 10° 63° (ENE) 21:29:41 437.325/437.525
GOMX 1 29 May 21:34:41 21:39:28 35° 266° (W) 21:44:25 467.674
CINEMA 3 29 May 21:35:24 21:40:25 86° 78° (ENE) 21:45:30 145.822/145.860
CANX-2 29 May 21:38:44 21:42:41 36° 263° (W) 21:46:37 2200.000
CUTE 1.7 + AOD 2 29 May 21:41:46 21:45:45 37° 263° (W) 21:49:42 437.475
BRITE-PL 29 May 21:49:24 21:53:03 18° 273° (W) 21:56:37 437.365/2234.400
Cosmos 2491 29 May 21:50:31 21:57:05 22° 299° (WNW) 22:03:19 435.465 / 435.565
UKube-1 29 May 21:52:00 21:55:02 19° 66° (ENE) 21:58:12 .
ZACube-1 29 May 21:55:08 21:59:29 45° 73° (ENE) 22:03:52 437.345
AIST 1 29 May 21:56:23 21:59:37 20° 289° (WNW) 22:02:48
HO-68 29 May 21:57:48 22:04:26 38° 263° (W) 22:10:59 435.675
SEEDS 29 May 21:59:51 22:03:33 28° 265° (W) 22:07:12 437.485
Oscar 11 29 May 22:00:35 22:04:55 90° 31° (NNE) 22:09:16 145.826/435.025
DX 1 29 May 22:04:36 22:08:17 28° 69° (ENE) 22:12:04 434.975-435.025
CUBEBUG 2 29 May 22:06:35 22:11:22 87° 251° (WSW) 22:16:10 437.445
COMPASS 1 29 May 22:08:07 22:11:47 28° 265° (W) 22:15:23 437.405
ISS 29 May 22:09:07 22:11:38 21° 134° (SE) 22:14:12 145.825
AAUSAT CUBESAT 2 29 May 22:17:44 22:21:16 26° 265° (W) 22:24:44 437.432
DOVE 4 29 May 22:21:52 22:25:40 20° 271° (W) 22:29:21 437.250
CUBEBUG 1 29 May 22:22:42 22:23:57 11° 63° (ENE) 22:25:26 437.445
GONETS M04 29 May 22:22:55 22:24:32 11° 51° (NE) 22:26:53
DELFI C3 29 May 22:23:27 22:27:27 67° 259° (W) 22:31:28 145.870
CUSAT 1 29 May 22:25:53 22:28:33 13° 52° (NE) 22:31:21 437.405
VELOX 1 29 May 22:30:47 22:34:29 27° 68° (ENE) 22:38:16 145.980
ESTCUBE 1 29 May 22:46:06 22:49:36 23° 68° (ENE) 22:53:13 437.505/2401.250
UWE-3 29 May 22:47:51 22:52:16 40° 263° (W) 22:56:39 435.000/436.395/437.385
FUNcube-1 29 May 22:49:21 22:53:49 49° 261° (W) 22:58:14 145.935
Cosmos 2504 29 May 22:54:00 23:00:01 29° 274° (W) 23:05:54 435.465 / 435.565
HUMSAT D 29 May 22:59:44 23:04:03 78° 257° (WSW) 23:08:22 437.325/437.525
AISAT 29 May 23:02:46 23:07:08 61° 74° (ENE) 23:11:35 437.250
ANTELSAT 29 May 23:05:37 23:09:10 25° 94° (E) 23:12:43 437.575/2403.000
50 SAT 29 May 23:12:30 23:16:29 84° 77° (ENE) 23:20:29 437.505
CINEMA 3 29 May 23:17:08 23:18:22 11° 275° (W) 23:19:14 145.822/145.860
QB50P1 29 May 23:22:41 23:25:25 17° 91° (E) 23:28:16 145.935-145.965
POLYITAN 1 29 May 23:26:16 23:29:15 19° 92° (E) 23:32:20 437.675
UKube-1 29 May 23:26:52 23:30:56 39° 262° (W) 23:35:00 .
ZACube-1 29 May 23:32:55 23:36:06 18° 269° (W) 23:39:07 437.345
TIGRISAT 29 May 23:36:27 23:40:43 52° 99° (E) 23:44:54 435.000
DX 1 29 May 23:40:48 23:44:31 26° 265° (W) 23:48:11 434.975-435.025
ISS 29 May 23:44:45 23:47:53 43° 330° (NNW) 23:51:01 145.825
NANOSAT C BR1 29 May 23:51:56 23:55:51 35° 97° (E) 23:59:46 145.865
CUBEBUG 1 29 May 23:55:24 23:59:46 74° 259° (W) 00:04:11 437.445
DANDE 29 May 23:55:52 00:03:17 51° 72° (ENE) 00:09:04 436.750
UNISAT 6 29 May 23:58:15 00:02:38 85° 284° (WNW) 00:06:55 437.425
QB50P2 30 May 00:02:12 00:06:21 47° 99° (E) 00:10:29 145.880/145.840
CUSAT 1 30 May 00:06:06 00:13:06 76° 78° (ENE) 00:18:22 437.405
VELOX 1 30 May 00:07:06 00:10:58 28° 265° (W) 00:14:49 145.980
DUCHIFAT 1 30 May 00:12:53 00:17:07 60° 100° (E) 00:21:19 145.980
POPSAT HIP 1 30 May 00:13:36 00:17:52 63° 101° (E) 00:22:04 437.405
GONETS M04 30 May 00:15:20 00:23:57 58° 76° (ENE) 00:32:31
BUGSAT 1 30 May 00:21:35 00:25:46 51° 99° (E) 00:29:54 437.445
SPROUT 30 May 00:21:59 00:26:14 59° 74° (ENE) 00:30:31 437.525
ESTCUBE 1 30 May 00:22:16 00:26:20 33° 263° (W) 00:30:24 437.505/2401.250
PCSat 30 May 00:26:54 00:32:06 51° 114° (ESE) 00:37:22 145.827
TISAT 1 30 May 00:32:50 00:36:59 56° 74° (ENE) 00:41:12 437.305
AISAT 30 May 00:42:10 00:44:13 12° 271° (W) 00:46:01 437.250
ANTELSAT 30 May 00:42:11 00:45:58 28° 291° (WNW) 00:49:37 437.575/2403.000
QB50P1 30 May 00:57:28 01:01:31 41° 288° (WNW) 01:05:30 145.935-145.965
POLYITAN 1 30 May 01:01:22 01:05:20 37° 289° (WNW) 01:09:13 437.675
VERMONT LUNAR 30 May 01:01:59 01:04:50 29° 157° (SSE) 01:07:41 437.305
BEESAT 2 30 May 01:12:45 01:14:29 12° 38° (NE) 01:16:21 435.950
TIGRISAT 30 May 01:14:34 01:17:04 15° 295° (WNW) 01:19:22 435.000
ITUPSAT 1 30 May 01:20:03 01:24:10 31° 69° (ENE) 01:28:22 437.325
Cosmos 2499 30 May 01:20:32 01:26:07 25° 68° (ENE) 01:31:58 435.465 / 435.565
ISS 30 May 01:22:54 01:24:56 15° 350° (N) 01:26:56 145.825
O/OREOS (USA 219) 30 May 01:24:10 01:28:40 77° 67° (ENE) 01:33:07 437.305
BEESAT 30 May 01:25:26 01:29:43 35° 70° (ENE) 01:34:04 436.000
NANOSAT C BR1 30 May 01:28:16 01:31:30 20° 293° (WNW) 01:34:35 145.865
SWISSCUBE 30 May 01:34:12 01:38:43 47° 71° (ENE) 01:43:17 437.505
QB50P2 30 May 01:39:15 01:41:54 16° 294° (WNW) 01:44:23 145.880/145.840
DANDE 30 May 01:39:52 01:45:59 28° 276° (W) 01:50:52 436.750
DUCHIFAT 1 30 May 01:50:27 01:52:29 13° 296° (WNW) 01:54:19 145.980
CUSAT 1 30 May 01:50:49 01:54:35 15° 281° (W) 01:57:36 437.405
POPSAT HIP 1 30 May 01:51:21 01:53:15 12° 296° (WNW) 01:54:58 437.405
BEESAT 3 30 May 01:56:02 01:59:45 32° 50° (NE) 02:03:25 437.485
BUGSAT 1 30 May 01:58:21 02:00:50 15° 295° (WNW) 02:03:09 437.445
SPROUT 30 May 02:00:54 02:02:47 12° 272° (W) 02:04:26 437.525
PHONESAT 2.4 30 May 02:09:38 02:12:40 28° 156° (SSE) 02:15:43 2401.200-2431.200
TISAT 1 30 May 02:11:18 02:13:12 12° 271° (W) 02:14:52 437.305
PCSat 30 May 02:11:19 02:15:50 26° 313° (NW) 02:20:18 145.827
GONETS M04 30 May 02:12:57 02:20:22 31° 276° (W) 02:27:29
KKS-1 30 May 02:14:25 02:17:37 20° 66° (ENE) 02:20:58 437.445
Gurwin Techsat 1B 30 May 02:22:29 02:24:49 13° 87° (E) 02:27:28 435.225
SO-50 30 May 02:36:16 02:40:43 45° 117° (ESE) 02:45:21 436.795
VERMONT LUNAR 30 May 02:38:34 02:41:48 73° 172° (S) 02:45:00 437.305
Oscar 19 30 May 02:41:40 02:46:49 74° 102° (ESE) 02:51:57 437.125/150
BEESAT 2 30 May 02:49:06 02:53:14 89° 239° (WSW) 02:57:17 435.950
ITUPSAT 1 30 May 02:57:57 03:02:03 28° 265° (W) 03:06:08 437.325
AIST 2 30 May 03:00:16 03:04:11 35° 50° (NE) 03:08:03 435.215
ISS 30 May 03:00:21 03:02:20 15° 10° (N) 03:04:19 145.825
ITAMSAT 1 30 May 03:03:16 03:07:58 34° 96° (E) 03:12:43 435.822/435.867
BEESAT 30 May 03:03:45 03:07:40 24° 266° (W) 03:11:28 436.000
STARS 30 May 03:09:15 03:13:30 46° 72° (ENE) 03:17:47 437.465
Cosmos 2499 30 May 03:12:52 03:19:44 55° 268° (W) 03:26:44 435.465 / 435.565
SWISSCUBE 30 May 03:13:32 03:16:52 18° 269° (W) 03:20:03 437.505
BEESAT 3 30 May 03:34:18 03:37:36 23° 247° (WSW) 03:40:47 437.485
PHONESAT 2.4 30 May 03:47:04 03:50:32 71° 172° (S) 03:54:01 2401.200-2431.200
KKS-1 30 May 03:49:47 03:54:01 40° 262° (W) 03:58:15 437.445
Gurwin Techsat 1B 30 May 04:00:10 04:05:30 76° 286° (WNW) 04:10:48 435.225
MOZHAYETS 4 30 May 04:06:57 04:10:37 25° 68° (ENE) 04:14:22
JAS-2 30 May 04:14:23 04:18:43 27° 95° (E) 04:23:19 435.910
VERMONT LUNAR 30 May 04:15:44 04:18:56 66° 189° (S) 04:22:06 437.305
SO-50 30 May 04:17:30 04:21:29 26° 316° (NW) 04:25:31 436.795
Oscar 19 30 May 04:22:44 04:25:38 15° 298° (WNW) 04:28:18 437.125/150
HORYU 2 30 May 04:34:16 04:38:26 41° 98° (E) 04:42:38 437.375
ISS 30 May 04:36:16 04:39:24 41° 29° (NNE) 04:42:31 145.825
AIST 2 30 May 04:39:14 04:42:35 23° 247° (WSW) 04:45:48 435.215
ITAMSAT 1 30 May 04:42:52 04:47:25 30° 293° (WNW) 04:51:53 435.822/435.867
STARS 30 May 04:47:19 04:50:14 16° 269° (W) 04:52:59 437.465
AO-7 30 May 04:59:48 05:07:58 55° 101° (ESE) 05:16:09 29.400- 29.500
PHONESAT 2.4 30 May 05:25:08 05:28:36 71° 189° (S) 05:32:04 2401.200-2431.200
MOZHAYETS 4 30 May 05:43:37 05:47:44 32° 264° (W) 05:51:49
Gurwin Techsat 1B 30 May 05:43:37 05:44:41 10° 302° (WNW) 05:45:25 435.225
PRISM 30 May 05:52:41 05:53:11 10° 63° (ENE) 05:53:55 437.425
VERMONT LUNAR 30 May 05:53:12 05:55:49 23° 206° (SSW) 05:58:25 437.305
CUBESAT XI-V 30 May 05:55:01 05:58:52 27° 69° (ENE) 06:02:50 437.345
JAS-2 30 May 05:59:17 06:04:00 35° 291° (WNW) 06:08:48 435.910
Cosmos 2491 30 May 06:00:52 06:09:04 42° 72° (ENE) 06:17:19 435.465 / 435.565
Cubesat XI-IV 30 May 06:05:31 06:06:30 11° 86° (E) 06:07:52 437.490
HORYU 2 30 May 06:11:39 06:14:50 19° 294° (WNW) 06:17:53 437.375
ISS 30 May 06:13:00 06:15:41 23° 225° (SW) 06:18:20 145.825
YUBILEINY 30 May 06:51:22 06:58:59 36° 86° (E) 07:06:45 435.215
RS-15 30 May 06:52:21 06:56:27 14° 98° (E) 07:01:34 29.354- 29.394
AO-7 30 May 06:53:04 07:00:30 36° 300° (WNW) 07:07:48 29.400- 29.500
STRAND 1 30 May 06:58:30 07:03:27 53° 72° (ENE) 07:08:26 437.568
PHONESAT 2.4 30 May 07:03:27 07:06:28 27° 205° (SSW) 07:09:27 2401.200-2431.200
CUTE-I 30 May 07:20:25 07:25:43 57° 100° (E) 07:31:00 437.470
PRISM 30 May 07:24:03 07:28:07 71° 257° (WSW) 07:32:13 437.425
M-CUBED/EXP-1 PRIME 30 May 07:31:54 07:36:02 85° 74° (ENE) 07:39:51 437.505
CUBESAT XI-V 30 May 07:32:13 07:36:15 29° 265° (W) 07:40:17 437.345
AUBIESAT-1 30 May 07:36:41 07:40:46 83° 74° (ENE) 07:44:33 437.475
